Weather in Lobkovo

Russia / Vladimir Oblast     56°29′43″N   38°20′40″E
temp.,
°C
wind,
m/s
gust,
m/s
humid.,
%
clouds,
%
prec.,
mm/h
press.,
hPa
HPBL,
m
6 may, thu
thu600:00+7s259824 0.0 1007138
03:00+6sse359827 0.0 100799
06:00+7sse41195100 0.0 1006271
09:00+12s51484100 0.0 1005635
12:00+15s81662100 0.0 10031775
15:00+13s8166777 0.3 10021575
18:00+10ssw81477100 0.4 10021505
21:00+7wsw51189100 1.3 1005823
7 may, fri
fri700:00+5ssw41291100 0.0 1007520
03:00+5sw41093100 0.0 1008575
06:00+4sw411926 0.0 1009539
09:00+8wsw59675 0.0 10111102
12:00+12wsw694353 0.0 10112295
15:00+13sw694299 0.0 10122435
18:00+12sw5105898 0.2 10121578
21:00+8s267284 0.3 1013126
8 may, sat
sat800:00+8sse51474100 0.0 1012478
03:00+8sse51474100 0.1 1010902
06:00+8sse71666100 0.1 10091294
09:00+9sse61470100 0.2 10071289
12:00+8sse61594100 3.6 10041424
15:00+9s41097100 5.1 1002821
18:00+10ssw41094100 0.6 1001656
21:00+7sw41091100 3.2 1002779
9 may, sun
sun900:00+3wsw71388100 0.2 10051078
03:00+4wsw71390100 0.2 10081172
06:00+4wsw61185100 0.1 10111121
09:00+5w598399 0.1 1014953
12:00+10wnw585177 0.0 10161815
15:00+11wnw464599 0.1 10181990
18:00+10nw355263 0.0 10211652
21:00+4nw11725 0.1 102411
10 may, mon
mon1000:00+3wnw11716 0.0 102610
03:00+2wnw11716 0.0 102710
06:00+4sw11665 0.0 102914
09:00+11sw224619 0.0 1029713
12:00+14wsw233741 0.0 10291508
15:00+15w23375 0.0 10281534
18:00+14sw12515 0.0 10281062
21:00+8ssw22663 0.0 102911